Year,Month,Day,Hour,Minute,Value (Times are PST for temperature in C)
2006,11,22,00,00,5.80
2006,11,22,00,01,5.80
2006,11,22,00,02,5.80
2006,11,22,00,03,5.80
2006,11,22,00,04,5.80
2006,11,22,00,05,5.80
2006,11,22,00,06,5.80
2006,11,22,00,07,5.70
2006,11,22,00,08,5.70
2006,11,22,00,09,5.70
2006,11,22,00,10,5.70
2006,11,22,00,11,5.70
2006,11,22,00,12,5.70
2006,11,22,00,13,5.70
2006,11,22,00,14,5.70
2006,11,22,00,15,5.70
2006,11,22,00,16,5.70
2006,11,22,00,17,5.70
2006,11,22,00,18,5.70
2006,11,22,00,19,5.70
2006,11,22,00,20,5.70
2006,11,22,00,21,5.70
2006,11,22,00,22,5.70
2006,11,22,00,23,5.80
2006,11,22,00,24,5.80
2006,11,22,00,25,5.90
2006,11,22,00,26,5.90
2006,11,22,00,27,5.90
2006,11,22,00,28,6.00
2006,11,22,00,29,6.00
2006,11,22,00,30,6.00
2006,11,22,00,31,6.00
2006,11,22,00,32,6.00
2006,11,22,00,33,6.00
2006,11,22,00,34,6.00
2006,11,22,00,35,6.00
2006,11,22,00,36,6.00
2006,11,22,00,37,6.00
2006,11,22,00,38,6.00
2006,11,22,00,39,6.00
2006,11,22,00,40,6.00
2006,11,22,00,41,6.00
2006,11,22,00,42,6.00
2006,11,22,00,43,6.00
2006,11,22,00,44,6.00
2006,11,22,00,45,6.00
2006,11,22,00,46,6.00
2006,11,22,00,47,6.00
2006,11,22,00,48,6.00
2006,11,22,00,49,6.00
2006,11,22,00,50,6.00
2006,11,22,00,51,6.10
2006,11,22,00,52,6.10
2006,11,22,00,53,6.10
2006,11,22,00,54,6.10
2006,11,22,00,55,6.10
2006,11,22,00,56,6.10
2006,11,22,00,57,6.10
2006,11,22,00,58,6.20
2006,11,22,00,59,6.20
2006,11,22,01,00,6.20
2006,11,22,01,01,6.20
2006,11,22,01,02,6.20
2006,11,22,01,03,6.20
2006,11,22,01,04,6.30
2006,11,22,01,05,6.30
2006,11,22,01,06,6.30
2006,11,22,01,07,6.40
2006,11,22,01,08,6.40
2006,11,22,01,09,6.40
2006,11,22,01,10,6.40
2006,11,22,01,11,6.40
2006,11,22,01,12,6.40
2006,11,22,01,13,6.40
2006,11,22,01,14,6.40
2006,11,22,01,15,6.40
2006,11,22,01,16,6.40
2006,11,22,01,17,6.40
2006,11,22,01,18,6.40
2006,11,22,01,19,6.40
2006,11,22,01,20,6.40
2006,11,22,01,21,6.40
2006,11,22,01,22,6.40
2006,11,22,01,23,6.40
2006,11,22,01,24,6.30
2006,11,22,01,25,6.30
2006,11,22,01,26,6.20
2006,11,22,01,27,6.20
2006,11,22,01,28,6.20
2006,11,22,01,29,6.20
2006,11,22,01,30,6.20
2006,11,22,01,31,6.20
2006,11,22,01,32,6.20
2006,11,22,01,33,6.20
2006,11,22,01,34,6.10
2006,11,22,01,35,6.10
2006,11,22,01,36,6.10
2006,11,22,01,37,6.10
2006,11,22,01,38,6.10
2006,11,22,01,39,6.10
2006,11,22,01,40,6.10
2006,11,22,01,41,6.00
2006,11,22,01,42,6.00
2006,11,22,01,43,6.00
2006,11,22,01,44,6.00
2006,11,22,01,45,6.00
2006,11,22,01,46,5.90
2006,11,22,01,47,5.90
2006,11,22,01,48,5.90
2006,11,22,01,49,5.90
2006,11,22,01,50,5.90
2006,11,22,01,51,5.90
2006,11,22,01,52,5.90
2006,11,22,01,53,5.90
2006,11,22,01,54,5.90
2006,11,22,01,55,5.90
2006,11,22,01,56,5.90
2006,11,22,01,57,5.90
2006,11,22,01,58,5.90
2006,11,22,01,59,5.90
2006,11,22,02,00,5.90
2006,11,22,02,01,5.90
2006,11,22,02,02,5.90
2006,11,22,02,03,5.90
2006,11,22,02,04,6.00
2006,11,22,02,05,6.00
2006,11,22,02,06,6.00
2006,11,22,02,07,6.00
2006,11,22,02,08,6.00
2006,11,22,02,09,6.00
2006,11,22,02,10,6.00
2006,11,22,02,11,6.00
2006,11,22,02,12,6.00
2006,11,22,02,13,6.00
2006,11,22,02,14,6.00
2006,11,22,02,15,6.00
2006,11,22,02,16,6.00
2006,11,22,02,17,5.90
2006,11,22,02,18,5.90
2006,11,22,02,19,5.90
2006,11,22,02,20,5.90
2006,11,22,02,21,5.90
2006,11,22,02,22,5.80
2006,11,22,02,23,5.80
2006,11,22,02,24,5.80
2006,11,22,02,25,5.70
2006,11,22,02,26,5.70
2006,11,22,02,27,5.70
2006,11,22,02,28,5.70
2006,11,22,02,29,5.70
2006,11,22,02,30,5.70
2006,11,22,02,31,5.70
2006,11,22,02,32,5.70
2006,11,22,02,33,5.70
2006,11,22,02,34,5.60
2006,11,22,02,35,5.60
2006,11,22,02,36,5.60
2006,11,22,02,37,5.60
2006,11,22,02,38,5.60
2006,11,22,02,39,5.60
2006,11,22,02,40,5.50
2006,11,22,02,41,5.50
2006,11,22,02,42,5.50
2006,11,22,02,43,5.50
2006,11,22,02,44,5.50
2006,11,22,02,45,5.50
2006,11,22,02,46,5.50
2006,11,22,02,47,5.50
2006,11,22,02,48,5.50
2006,11,22,02,49,5.50
2006,11,22,02,50,5.50
2006,11,22,02,51,5.50
2006,11,22,02,52,5.50
2006,11,22,02,53,5.50
2006,11,22,02,54,5.50
2006,11,22,02,55,5.50
2006,11,22,02,56,5.50
2006,11,22,02,57,5.50
2006,11,22,02,58,5.50
2006,11,22,02,59,5.50
2006,11,22,03,00,5.50
2006,11,22,03,01,5.50
2006,11,22,03,02,5.50
2006,11,22,03,03,5.50
2006,11,22,03,04,5.50
2006,11,22,03,05,5.50
2006,11,22,03,06,5.50
2006,11,22,03,07,5.50
2006,11,22,03,08,5.40
2006,11,22,03,09,5.40
2006,11,22,03,10,5.40
2006,11,22,03,11,5.40
2006,11,22,03,12,5.40
2006,11,22,03,13,5.30
2006,11,22,03,14,5.30
2006,11,22,03,15,5.30
2006,11,22,03,16,5.30
2006,11,22,03,17,5.30
2006,11,22,03,18,5.30
2006,11,22,03,19,5.30
2006,11,22,03,20,5.30
2006,11,22,03,21,5.30
2006,11,22,03,22,5.30
2006,11,22,03,23,5.30
2006,11,22,03,24,5.30
2006,11,22,03,25,5.30
2006,11,22,03,26,5.30
2006,11,22,03,27,5.20
2006,11,22,03,28,5.20
2006,11,22,03,29,5.20
2006,11,22,03,30,5.20
2006,11,22,03,31,5.20
2006,11,22,03,32,5.10
2006,11,22,03,33,5.10
2006,11,22,03,34,5.10
2006,11,22,03,35,5.10
2006,11,22,03,36,5.10
2006,11,22,03,37,5.10
2006,11,22,03,38,5.20
2006,11,22,03,39,5.20
2006,11,22,03,40,5.20
2006,11,22,03,41,5.20
2006,11,22,03,42,5.20
2006,11,22,03,43,5.20
2006,11,22,03,44,5.20
2006,11,22,03,45,5.20
2006,11,22,03,46,5.10
2006,11,22,03,47,5.10
2006,11,22,03,48,5.10
2006,11,22,03,49,5.10
2006,11,22,03,50,5.10
2006,11,22,03,51,5.10
2006,11,22,03,52,5.10
2006,11,22,03,53,5.10
2006,11,22,03,54,5.10
2006,11,22,03,55,5.10
2006,11,22,03,56,5.10
2006,11,22,03,57,5.10
2006,11,22,03,58,5.10
2006,11,22,03,59,5.10
2006,11,22,04,00,5.10
2006,11,22,04,01,5.10
2006,11,22,04,02,5.10
2006,11,22,04,03,5.10
2006,11,22,04,04,5.10
2006,11,22,04,05,5.10
2006,11,22,04,06,5.10
2006,11,22,04,07,5.10
2006,11,22,04,08,5.10
2006,11,22,04,09,5.10
2006,11,22,04,10,5.10
2006,11,22,04,11,5.10
2006,11,22,04,12,5.10
2006,11,22,04,13,5.10
2006,11,22,04,14,5.10
2006,11,22,04,15,5.10
2006,11,22,04,16,5.10
2006,11,22,04,17,5.10
2006,11,22,04,18,5.10
2006,11,22,04,19,5.10
2006,11,22,04,20,5.10
2006,11,22,04,21,5.10
2006,11,22,04,22,4.90
2006,11,22,04,23,4.90
2006,11,22,04,24,4.90
2006,11,22,04,25,4.90
2006,11,22,04,26,4.90
2006,11,22,04,27,4.90
2006,11,22,04,28,4.90
2006,11,22,04,29,4.90
2006,11,22,04,30,4.90
2006,11,22,04,31,4.90
2006,11,22,04,32,4.90
2006,11,22,04,33,4.90
2006,11,22,04,34,4.90
2006,11,22,04,35,4.90
2006,11,22,04,36,4.90
2006,11,22,04,37,4.90
2006,11,22,04,38,4.90
2006,11,22,04,39,4.90
2006,11,22,04,40,4.90
2006,11,22,04,41,4.90
2006,11,22,04,42,4.90
2006,11,22,04,43,4.90
2006,11,22,04,44,4.90
2006,11,22,04,45,4.90
2006,11,22,04,46,4.90
2006,11,22,04,47,4.90
2006,11,22,04,48,4.90
2006,11,22,04,49,4.90
2006,11,22,04,50,4.90
2006,11,22,04,51,4.90
2006,11,22,04,52,4.90
2006,11,22,04,53,4.90
2006,11,22,04,54,4.90
2006,11,22,04,55,4.90
2006,11,22,04,56,4.90
2006,11,22,04,57,4.90
2006,11,22,04,58,4.90
2006,11,22,04,59,4.90
2006,11,22,05,00,4.90
2006,11,22,05,01,4.90
2006,11,22,05,02,4.90
2006,11,22,05,03,4.80
2006,11,22,05,04,4.80
2006,11,22,05,05,4.80
2006,11,22,05,06,4.80
2006,11,22,05,07,4.70
2006,11,22,05,08,4.70
2006,11,22,05,09,4.70
2006,11,22,05,10,4.70
2006,11,22,05,11,4.70
2006,11,22,05,12,4.60
2006,11,22,05,13,4.60
2006,11,22,05,14,4.60
2006,11,22,05,15,4.60
2006,11,22,05,16,4.60
2006,11,22,05,17,4.70
2006,11,22,05,18,4.70
2006,11,22,05,19,4.80
2006,11,22,05,20,4.80
2006,11,22,05,21,4.80
2006,11,22,05,22,4.80
2006,11,22,05,23,4.80
2006,11,22,05,24,4.80
2006,11,22,05,25,4.80
2006,11,22,05,26,4.80
2006,11,22,05,27,4.80
2006,11,22,05,28,4.80
2006,11,22,05,29,4.90
2006,11,22,05,30,4.90
2006,11,22,05,31,4.90
2006,11,22,05,32,4.90
2006,11,22,05,33,4.90
2006,11,22,05,34,4.90
2006,11,22,05,35,4.90
2006,11,22,05,36,5.00
2006,11,22,05,37,5.10
2006,11,22,05,38,5.20
2006,11,22,05,39,5.30
2006,11,22,05,40,5.30
2006,11,22,05,41,5.30
2006,11,22,05,42,5.40
2006,11,22,05,43,5.50
2006,11,22,05,44,5.60
2006,11,22,05,45,5.60
2006,11,22,05,46,5.60
2006,11,22,05,47,5.70
2006,11,22,05,48,5.70
2006,11,22,05,49,5.70
2006,11,22,05,50,5.70
2006,11,22,05,51,5.80
2006,11,22,05,52,5.80
2006,11,22,05,53,5.80
2006,11,22,05,54,5.80
2006,11,22,05,55,5.90
2006,11,22,05,56,5.90
2006,11,22,05,57,5.90
2006,11,22,05,58,5.90
2006,11,22,05,59,6.00
2006,11,22,06,00,6.00
2006,11,22,06,01,6.00
2006,11,22,06,02,6.00
2006,11,22,06,03,6.10
2006,11,22,06,04,6.10
2006,11,22,06,05,6.10
2006,11,22,06,06,6.10
2006,11,22,06,07,6.00
2006,11,22,06,08,5.90
2006,11,22,06,09,5.70
2006,11,22,06,10,5.60
2006,11,22,06,11,5.50
2006,11,22,06,12,5.50
2006,11,22,06,13,5.50
2006,11,22,06,14,5.40
2006,11,22,06,15,5.40
2006,11,22,06,16,5.40
2006,11,22,06,17,5.30
2006,11,22,06,18,5.30
2006,11,22,06,19,5.30
2006,11,22,06,20,5.30
2006,11,22,06,21,5.30
2006,11,22,06,22,5.30
2006,11,22,06,23,5.30
2006,11,22,06,24,5.30
2006,11,22,06,25,5.30
2006,11,22,06,26,5.30
2006,11,22,06,27,5.30
2006,11,22,06,28,5.30
2006,11,22,06,29,5.20
2006,11,22,06,30,5.20
2006,11,22,06,31,5.20
2006,11,22,06,32,5.10
2006,11,22,06,33,5.10
2006,11,22,06,34,5.10
2006,11,22,06,35,5.10
2006,11,22,06,36,5.10
2006,11,22,06,37,5.10
2006,11,22,06,38,5.10
2006,11,22,06,39,5.10
2006,11,22,06,40,5.10
2006,11,22,06,41,5.10
2006,11,22,06,42,5.10
2006,11,22,06,43,5.10
2006,11,22,06,44,5.00
2006,11,22,06,45,4.90
2006,11,22,06,46,4.90
2006,11,22,06,47,4.90
2006,11,22,06,48,4.90
2006,11,22,06,49,4.90
2006,11,22,06,50,4.90
2006,11,22,06,51,4.90
2006,11,22,06,52,4.90
2006,11,22,06,53,4.90
2006,11,22,06,54,4.90
2006,11,22,06,55,4.90
2006,11,22,06,56,4.90
2006,11,22,06,57,4.90
2006,11,22,06,58,5.00
2006,11,22,06,59,5.10
2006,11,22,07,00,5.10
2006,11,22,07,01,5.10
2006,11,22,07,02,5.10
2006,11,22,07,03,5.20
2006,11,22,07,04,5.20
2006,11,22,07,05,5.20
2006,11,22,07,06,5.20
2006,11,22,07,07,5.30
2006,11,22,07,08,5.30
2006,11,22,07,09,5.30
2006,11,22,07,10,5.30
2006,11,22,07,11,5.30
2006,11,22,07,12,5.30
2006,11,22,07,13,5.30
2006,11,22,07,14,5.40
2006,11,22,07,15,5.40
2006,11,22,07,16,5.40
2006,11,22,07,17,5.40
2006,11,22,07,18,5.40
2006,11,22,07,19,5.40
2006,11,22,07,20,5.40
2006,11,22,07,21,5.40
2006,11,22,07,22,5.30
2006,11,22,07,23,5.30
2006,11,22,07,24,5.30
2006,11,22,07,25,5.30
2006,11,22,07,26,5.30
2006,11,22,07,27,5.30
2006,11,22,07,28,5.30
2006,11,22,07,29,5.30
2006,11,22,07,30,5.30
2006,11,22,07,31,5.30
2006,11,22,07,32,5.30
2006,11,22,07,33,5.30
2006,11,22,07,34,5.30
2006,11,22,07,35,5.30
2006,11,22,07,36,5.30
2006,11,22,07,37,5.30
2006,11,22,07,38,5.30
2006,11,22,07,39,5.40
2006,11,22,07,40,5.40
2006,11,22,07,41,5.50
2006,11,22,07,42,5.50
2006,11,22,07,43,5.50
2006,11,22,07,44,5.50
2006,11,22,07,45,5.50
2006,11,22,07,46,5.50
2006,11,22,07,47,5.50
2006,11,22,07,48,5.50
2006,11,22,07,49,5.50
2006,11,22,07,50,5.50
2006,11,22,07,51,5.40
2006,11,22,07,52,5.40
2006,11,22,07,53,5.40
2006,11,22,07,54,5.40
2006,11,22,07,55,5.40
2006,11,22,07,56,5.40
2006,11,22,07,57,5.50
2006,11,22,07,58,5.50
2006,11,22,07,59,5.50
2006,11,22,08,00,5.60
2006,11,22,08,01,5.60
2006,11,22,08,02,5.60
2006,11,22,08,03,5.60
2006,11,22,08,04,5.70
2006,11,22,08,05,5.70
2006,11,22,08,06,5.70
2006,11,22,08,07,5.70
2006,11,22,08,08,5.70
2006,11,22,08,09,5.70
2006,11,22,08,10,5.80
2006,11,22,08,11,5.80
2006,11,22,08,12,5.80
2006,11,22,08,13,5.80
2006,11,22,08,14,5.80
2006,11,22,08,15,5.90
2006,11,22,08,16,5.90
2006,11,22,08,17,5.90
2006,11,22,08,18,5.90
2006,11,22,08,19,5.90
2006,11,22,08,20,5.90
2006,11,22,08,21,5.90
2006,11,22,08,22,5.90
2006,11,22,08,23,5.90
2006,11,22,08,24,5.90
2006,11,22,08,25,5.90
2006,11,22,08,26,6.00
2006,11,22,08,27,6.00
2006,11,22,08,28,6.00
2006,11,22,08,29,6.10
2006,11,22,08,30,6.10
2006,11,22,08,31,6.10
2006,11,22,08,32,6.10
2006,11,22,08,33,6.20
2006,11,22,08,34,6.20
2006,11,22,08,35,6.30
2006,11,22,08,36,6.40
2006,11,22,08,37,6.40
2006,11,22,08,38,6.50
2006,11,22,08,39,6.60
2006,11,22,08,40,6.60
2006,11,22,08,41,6.70
2006,11,22,08,42,6.70
2006,11,22,08,43,6.80
2006,11,22,08,44,6.80
2006,11,22,08,45,6.80
2006,11,22,08,46,6.80
2006,11,22,08,47,6.90
2006,11,22,08,48,6.90
2006,11,22,08,49,7.00
2006,11,22,08,50,7.00
2006,11,22,08,51,7.00
2006,11,22,08,52,7.10
2006,11,22,08,53,7.20
2006,11,22,08,54,7.30
2006,11,22,08,55,7.30
2006,11,22,08,56,7.40
2006,11,22,08,57,7.40
2006,11,22,08,58,7.40
2006,11,22,08,59,7.40
2006,11,22,09,00,7.50
2006,11,22,09,01,7.50
2006,11,22,09,02,7.40
2006,11,22,09,03,7.40
2006,11,22,09,04,7.30
2006,11,22,09,05,7.30
2006,11,22,09,06,7.30
2006,11,22,09,07,7.20
2006,11,22,09,08,7.20
2006,11,22,09,09,7.10
2006,11,22,09,10,7.10
2006,11,22,09,11,7.10
2006,11,22,09,12,7.10
2006,11,22,09,13,7.00
2006,11,22,09,14,7.00
2006,11,22,09,15,7.00
2006,11,22,09,16,6.90
2006,11,22,09,17,6.90
2006,11,22,09,18,7.00
2006,11,22,09,19,7.00
2006,11,22,09,20,7.00
2006,11,22,09,21,7.10
2006,11,22,09,22,7.10
2006,11,22,09,23,7.10
2006,11,22,09,24,7.10
2006,11,22,09,25,7.20
2006,11,22,09,26,7.20
2006,11,22,09,27,7.20
2006,11,22,09,28,7.30
2006,11,22,09,29,7.40
2006,11,22,09,30,7.40
2006,11,22,09,31,7.50
2006,11,22,09,32,7.50
2006,11,22,09,33,7.50
2006,11,22,09,34,7.60
2006,11,22,09,35,7.60
2006,11,22,09,36,7.60
2006,11,22,09,37,7.70
2006,11,22,09,38,7.70
2006,11,22,09,39,7.80
2006,11,22,09,40,7.80
2006,11,22,09,41,7.80
2006,11,22,09,42,7.80
2006,11,22,09,43,7.80
2006,11,22,09,44,7.80
2006,11,22,09,45,7.80
2006,11,22,09,46,7.80
2006,11,22,09,47,7.80
2006,11,22,09,48,7.80
2006,11,22,09,49,7.80
2006,11,22,09,50,7.80
2006,11,22,09,51,7.80
2006,11,22,09,52,7.70
2006,11,22,09,53,7.70
2006,11,22,09,54,7.60
2006,11,22,09,55,7.50
2006,11,22,09,56,7.50
2006,11,22,09,57,7.40
2006,11,22,09,58,7.30
2006,11,22,09,59,7.30
2006,11,22,10,00,7.30
2006,11,22,10,01,7.30
2006,11,22,10,02,7.30
2006,11,22,10,03,7.30
2006,11,22,10,04,7.30
2006,11,22,10,05,7.30
2006,11,22,10,06,7.30
2006,11,22,10,07,7.30
2006,11,22,10,08,7.30
2006,11,22,10,09,7.30
2006,11,22,10,10,7.30
2006,11,22,10,11,7.30
2006,11,22,10,12,7.40
2006,11,22,10,13,7.50
2006,11,22,10,14,7.50
2006,11,22,10,15,7.60
2006,11,22,10,16,7.50
2006,11,22,10,17,7.50
2006,11,22,10,18,7.50
2006,11,22,10,19,7.50
2006,11,22,10,20,7.50
2006,11,22,10,21,7.60
2006,11,22,10,22,7.60
2006,11,22,10,23,7.70
2006,11,22,10,24,7.80
2006,11,22,10,25,7.80
2006,11,22,10,26,7.80
2006,11,22,10,27,7.90
2006,11,22,10,28,7.90
2006,11,22,10,29,7.90
2006,11,22,10,30,7.80
2006,11,22,10,31,7.80
2006,11,22,10,32,7.80
2006,11,22,10,33,7.80
2006,11,22,10,34,7.70
2006,11,22,10,35,7.70
2006,11,22,10,36,7.60
2006,11,22,10,37,7.60
2006,11,22,10,38,7.50
2006,11,22,10,39,7.50
2006,11,22,10,40,7.50
2006,11,22,10,41,7.50
2006,11,22,10,42,7.50
2006,11,22,10,43,7.50
2006,11,22,10,44,7.60
2006,11,22,10,45,7.60
2006,11,22,10,46,7.60
2006,11,22,10,47,7.60
2006,11,22,10,48,7.50
2006,11,22,10,49,7.60
2006,11,22,10,50,7.70
2006,11,22,10,51,7.80
2006,11,22,10,52,7.80
2006,11,22,10,53,7.80
2006,11,22,10,54,7.80
2006,11,22,10,55,7.70
2006,11,22,10,56,7.60
2006,11,22,10,57,7.60
2006,11,22,10,58,7.70
2006,11,22,10,59,7.70
2006,11,22,11,00,7.70
2006,11,22,11,01,7.80
2006,11,22,11,02,7.80
2006,11,22,11,03,7.80
2006,11,22,11,04,7.80
2006,11,22,11,05,7.80
2006,11,22,11,06,7.80
2006,11,22,11,07,7.90
2006,11,22,11,08,7.90
2006,11,22,11,09,7.80
2006,11,22,11,10,7.80
2006,11,22,11,11,7.80
2006,11,22,11,12,7.80
2006,11,22,11,13,7.70
2006,11,22,11,14,7.70
2006,11,22,11,15,7.60
2006,11,22,11,16,7.60
2006,11,22,11,17,7.60
2006,11,22,11,18,7.60
2006,11,22,11,19,7.60
2006,11,22,11,20,7.50
2006,11,22,11,21,7.50
2006,11,22,11,22,7.50
2006,11,22,11,23,7.50
2006,11,22,11,24,7.40
2006,11,22,11,25,7.40
2006,11,22,11,26,7.40
2006,11,22,11,27,7.30
2006,11,22,11,28,7.30
2006,11,22,11,29,7.30
2006,11,22,11,30,7.30
2006,11,22,11,31,7.30
2006,11,22,11,32,7.30
2006,11,22,11,33,7.30
2006,11,22,11,34,7.30
2006,11,22,11,35,7.30
2006,11,22,11,36,7.30
2006,11,22,11,37,7.30
2006,11,22,11,38,7.30
2006,11,22,11,39,7.30
2006,11,22,11,40,7.30
2006,11,22,11,41,7.30
2006,11,22,11,42,7.30
2006,11,22,11,43,7.30
2006,11,22,11,44,7.30
2006,11,22,11,45,7.30
2006,11,22,11,46,7.30
2006,11,22,11,47,7.30
2006,11,22,11,48,7.30
2006,11,22,11,49,7.20
2006,11,22,11,50,7.20
2006,11,22,11,51,7.20
2006,11,22,11,52,7.20
2006,11,22,11,53,7.20
2006,11,22,11,54,7.20
2006,11,22,11,55,7.20
2006,11,22,11,56,7.20
2006,11,22,11,57,7.20
2006,11,22,11,58,7.20
2006,11,22,11,59,7.20
2006,11,22,12,00,7.30
2006,11,22,12,01,7.30
2006,11,22,12,02,7.30
2006,11,22,12,03,7.30
2006,11,22,12,04,7.30
2006,11,22,12,05,7.30
2006,11,22,12,06,7.30
2006,11,22,12,07,7.30
2006,11,22,12,08,7.30
2006,11,22,12,09,7.30
2006,11,22,12,10,7.30
2006,11,22,12,11,7.40
2006,11,22,12,12,7.30
2006,11,22,12,13,7.40
2006,11,22,12,14,7.30
2006,11,22,12,15,7.30
2006,11,22,12,16,7.30
2006,11,22,12,17,7.30
2006,11,22,12,18,7.30
2006,11,22,12,19,7.30
2006,11,22,12,20,7.20
2006,11,22,12,21,7.20
2006,11,22,12,22,7.20
2006,11,22,12,23,7.20
2006,11,22,12,24,7.30
2006,11,22,12,25,7.30
2006,11,22,12,26,7.30
2006,11,22,12,27,7.30
2006,11,22,12,28,7.30
2006,11,22,12,29,7.30
2006,11,22,12,30,7.30
2006,11,22,12,31,7.30
2006,11,22,12,32,7.30
2006,11,22,12,33,7.30
2006,11,22,12,34,7.30
2006,11,22,12,35,7.40
2006,11,22,12,36,7.40
2006,11,22,12,37,7.40
2006,11,22,12,38,7.40
2006,11,22,12,39,7.40
2006,11,22,12,40,7.40
2006,11,22,12,41,7.30
2006,11,22,12,42,7.40
2006,11,22,12,43,7.40
2006,11,22,12,44,7.40
2006,11,22,12,45,7.40
2006,11,22,12,46,7.40
2006,11,22,12,47,7.40
2006,11,22,12,48,7.40
2006,11,22,12,49,7.40
2006,11,22,12,50,7.40
2006,11,22,12,51,7.40
2006,11,22,12,52,7.40
2006,11,22,12,53,7.40
2006,11,22,12,54,7.40
2006,11,22,12,55,7.40
2006,11,22,12,56,7.40
2006,11,22,12,57,7.40
2006,11,22,12,58,7.40
2006,11,22,12,59,7.40
2006,11,22,13,00,7.40
2006,11,22,13,01,7.40
2006,11,22,13,02,7.40
2006,11,22,13,03,7.40
2006,11,22,13,04,7.40
2006,11,22,13,05,7.40
2006,11,22,13,06,7.50
2006,11,22,13,07,7.50
2006,11,22,13,08,7.60
2006,11,22,13,09,7.60
2006,11,22,13,10,7.60
2006,11,22,13,11,7.60
2006,11,22,13,12,7.60
2006,11,22,13,13,7.60
2006,11,22,13,14,7.70
2006,11,22,13,15,7.70
2006,11,22,13,16,7.70
2006,11,22,13,17,7.70
2006,11,22,13,18,7.70
2006,11,22,13,19,7.70
2006,11,22,13,20,7.60
2006,11,22,13,21,7.60
2006,11,22,13,22,7.60
2006,11,22,13,23,7.60
2006,11,22,13,24,7.60
2006,11,22,13,25,7.60
2006,11,22,13,26,7.60
2006,11,22,13,27,7.60
2006,11,22,13,28,7.60
2006,11,22,13,29,7.60
2006,11,22,13,30,7.60
2006,11,22,13,31,7.50
2006,11,22,13,32,7.50
2006,11,22,13,33,7.50
2006,11,22,13,34,7.50
2006,11,22,13,35,7.50
2006,11,22,13,36,7.50
2006,11,22,13,37,7.50
2006,11,22,13,38,7.50
2006,11,22,13,39,7.50
2006,11,22,13,40,7.40
2006,11,22,13,41,7.40
2006,11,22,13,42,7.40
2006,11,22,13,43,7.40
2006,11,22,13,44,7.40
2006,11,22,13,45,7.40
2006,11,22,13,46,7.40
2006,11,22,13,47,7.40
2006,11,22,13,48,7.40
2006,11,22,13,49,7.40
2006,11,22,13,50,7.40
2006,11,22,13,51,7.40
2006,11,22,13,52,7.40
2006,11,22,13,53,7.30
2006,11,22,13,54,7.30
2006,11,22,13,55,7.30
2006,11,22,13,56,7.30
2006,11,22,13,57,7.30
2006,11,22,13,58,7.30
2006,11,22,13,59,7.30
2006,11,22,14,00,7.30
2006,11,22,14,01,7.30
2006,11,22,14,02,7.30
2006,11,22,14,03,7.30
2006,11,22,14,04,7.30
2006,11,22,14,05,7.30
2006,11,22,14,06,7.30
2006,11,22,14,07,7.20
2006,11,22,14,08,7.20
2006,11,22,14,09,7.20
2006,11,22,14,10,7.20
2006,11,22,14,11,7.20
2006,11,22,14,12,7.20
2006,11,22,14,13,7.20
2006,11,22,14,14,7.20
2006,11,22,14,15,7.10
2006,11,22,14,16,7.10
2006,11,22,14,17,7.10
2006,11,22,14,18,7.00
2006,11,22,14,19,7.00
2006,11,22,14,20,7.00
2006,11,22,14,21,6.90
2006,11,22,14,22,6.90
2006,11,22,14,23,6.90
2006,11,22,14,24,6.80
2006,11,22,14,25,6.80
2006,11,22,14,26,6.80
2006,11,22,14,27,6.80
2006,11,22,14,28,6.80
2006,11,22,14,29,6.80
2006,11,22,14,30,6.80
2006,11,22,14,31,6.80
2006,11,22,14,32,6.80
2006,11,22,14,33,6.80
2006,11,22,14,34,6.80
2006,11,22,14,35,6.80
2006,11,22,14,36,6.80
2006,11,22,14,37,6.80
2006,11,22,14,38,6.80
2006,11,22,14,39,6.80
2006,11,22,14,40,6.80
2006,11,22,14,41,6.80
2006,11,22,14,42,6.80
2006,11,22,14,43,6.80
2006,11,22,14,44,6.80
2006,11,22,14,45,6.70
2006,11,22,14,46,6.70
2006,11,22,14,47,6.70
2006,11,22,14,48,6.70
2006,11,22,14,49,6.80
2006,11,22,14,50,6.80
2006,11,22,14,51,6.80
2006,11,22,14,52,6.80
2006,11,22,14,53,6.80
2006,11,22,14,54,6.80
2006,11,22,14,55,6.80
2006,11,22,14,56,6.80
2006,11,22,14,57,6.80
2006,11,22,14,58,6.80
2006,11,22,14,59,6.80
2006,11,22,15,00,6.80
2006,11,22,15,01,6.80
2006,11,22,15,02,6.80
2006,11,22,15,03,6.80
2006,11,22,15,04,6.80
2006,11,22,15,05,6.80
2006,11,22,15,06,6.80
2006,11,22,15,07,6.80
2006,11,22,15,08,6.80
2006,11,22,15,09,6.80
2006,11,22,15,10,6.80
2006,11,22,15,11,6.80
2006,11,22,15,12,6.80
2006,11,22,15,13,6.80
2006,11,22,15,14,6.80
2006,11,22,15,15,6.80
2006,11,22,15,16,6.80
2006,11,22,15,17,6.80
2006,11,22,15,18,6.80
2006,11,22,15,19,6.80
2006,11,22,15,20,6.80
2006,11,22,15,21,6.80
2006,11,22,15,22,6.80
2006,11,22,15,23,6.80
2006,11,22,15,24,6.80
2006,11,22,15,25,6.90
2006,11,22,15,26,6.90
2006,11,22,15,27,6.90
2006,11,22,15,28,6.90
2006,11,22,15,29,6.90
2006,11,22,15,30,6.90
2006,11,22,15,31,6.90
2006,11,22,15,32,6.90
2006,11,22,15,33,7.00
2006,11,22,15,34,7.00
2006,11,22,15,35,7.00
2006,11,22,15,36,7.00
2006,11,22,15,37,7.00
2006,11,22,15,38,7.00
2006,11,22,15,39,7.10
2006,11,22,15,40,7.10
2006,11,22,15,41,7.10
2006,11,22,15,42,7.10
2006,11,22,15,43,7.10
2006,11,22,15,44,7.10
2006,11,22,15,45,7.10
2006,11,22,15,46,7.20
2006,11,22,15,47,7.20
2006,11,22,15,48,7.20
2006,11,22,15,49,7.20
2006,11,22,15,50,7.20
2006,11,22,15,51,7.20
2006,11,22,15,52,7.20
2006,11,22,15,53,7.20
2006,11,22,15,54,7.20
2006,11,22,15,55,7.20
2006,11,22,15,56,7.20
2006,11,22,15,57,7.20
2006,11,22,15,58,7.20
2006,11,22,15,59,7.20
2006,11,22,16,00,7.20
2006,11,22,16,01,7.20
2006,11,22,16,02,7.20
2006,11,22,16,03,7.20
2006,11,22,16,04,7.20
2006,11,22,16,05,7.20
2006,11,22,16,06,7.20
2006,11,22,16,07,7.30
2006,11,22,16,08,7.30
2006,11,22,16,09,7.30
2006,11,22,16,10,7.30
2006,11,22,16,11,7.30
2006,11,22,16,12,7.30
2006,11,22,16,13,7.30
2006,11,22,16,14,7.30
2006,11,22,16,15,7.30
2006,11,22,16,16,7.30
2006,11,22,16,17,7.30
2006,11,22,16,18,7.30
2006,11,22,16,19,7.30
2006,11,22,16,20,7.30
2006,11,22,16,21,7.30
2006,11,22,16,22,7.30
2006,11,22,16,23,7.30
2006,11,22,16,24,7.20
2006,11,22,16,25,7.20
2006,11,22,16,26,7.20
2006,11,22,16,27,7.20
2006,11,22,16,28,7.20
2006,11,22,16,29,7.20
2006,11,22,16,30,7.20
2006,11,22,16,31,7.20
2006,11,22,16,32,7.20
2006,11,22,16,33,7.20
2006,11,22,16,34,7.20
2006,11,22,16,35,7.20
2006,11,22,16,36,7.20
2006,11,22,16,37,7.20
2006,11,22,16,38,7.20
2006,11,22,16,39,7.20
2006,11,22,16,40,7.20
2006,11,22,16,41,7.20
2006,11,22,16,42,7.20
2006,11,22,16,43,7.10
2006,11,22,16,44,7.10
2006,11,22,16,45,7.10
2006,11,22,16,46,7.10
2006,11,22,16,47,7.10
2006,11,22,16,48,7.10
2006,11,22,16,49,7.10
2006,11,22,16,50,7.10
2006,11,22,16,51,7.10
2006,11,22,16,52,7.10
2006,11,22,16,53,7.10
2006,11,22,16,54,7.10
2006,11,22,16,55,7.10
2006,11,22,16,56,7.10
2006,11,22,16,57,7.10
2006,11,22,16,58,7.10
2006,11,22,16,59,7.10
2006,11,22,17,00,7.10
2006,11,22,17,01,7.20
2006,11,22,17,02,7.20
2006,11,22,17,03,7.20
2006,11,22,17,04,7.20
2006,11,22,17,05,7.20
2006,11,22,17,06,7.20
2006,11,22,17,07,7.20
2006,11,22,17,08,7.20
2006,11,22,17,09,7.20
2006,11,22,17,10,7.20
2006,11,22,17,11,7.20
2006,11,22,17,12,7.20
2006,11,22,17,13,7.20
2006,11,22,17,14,7.20
2006,11,22,17,15,7.20
2006,11,22,17,16,7.30
2006,11,22,17,17,7.30
2006,11,22,17,18,7.30
2006,11,22,17,19,7.20
2006,11,22,17,20,7.20
2006,11,22,17,21,7.20
2006,11,22,17,22,7.20
2006,11,22,17,23,7.20
2006,11,22,17,24,7.20
2006,11,22,17,25,7.20
2006,11,22,17,26,7.20
2006,11,22,17,27,7.20
2006,11,22,17,28,7.20
2006,11,22,17,29,7.20
2006,11,22,17,30,7.10
2006,11,22,17,31,7.10
2006,11,22,17,32,7.10
2006,11,22,17,33,7.10
2006,11,22,17,34,7.10
2006,11,22,17,35,7.10
2006,11,22,17,36,7.10
2006,11,22,17,37,7.10
2006,11,22,17,38,7.10
2006,11,22,17,39,7.10
2006,11,22,17,40,7.10
2006,11,22,17,41,7.10
2006,11,22,17,42,7.10
2006,11,22,17,43,7.10
2006,11,22,17,44,7.10
2006,11,22,17,45,7.10
2006,11,22,17,46,7.10
2006,11,22,17,47,7.10
2006,11,22,17,48,7.10
2006,11,22,17,49,7.10
2006,11,22,17,50,7.10
2006,11,22,17,51,7.10
2006,11,22,17,52,7.10
2006,11,22,17,53,7.10
2006,11,22,17,54,7.10
2006,11,22,17,55,7.10
2006,11,22,17,56,7.10
2006,11,22,17,57,7.10
2006,11,22,17,58,7.10
2006,11,22,17,59,7.10
2006,11,22,18,00,7.10
2006,11,22,18,01,7.20
2006,11,22,18,02,7.20
2006,11,22,18,03,7.20
2006,11,22,18,04,7.20
2006,11,22,18,05,7.20
2006,11,22,18,06,7.20